sat.trackr.live / text

‹ back to catalog

ONEWEB-0507

NORAD 54125 · 2022-138N

PAYLOAD ACTIVE UNKNOWN

§ Identity

Operator
Country
UK
Launch date
2022-10-22
Launch site
SRILR
Launch vehicle
Mass (kg)
RCS (m²)

Purposes: comms

External: N2YO · Heavens-Above · Gunter

§ Orbital elements

Epoch: 2026-09-20T01:01:54.107904Z

Period
109.11 min
Inclination
87.9102°
Eccentricity
0.0001900
Mean motion
13.19726287 rev/d
Perigee alt
1,184.3 km
Apogee alt
1,187.2 km
Semi-major
7,563.9 km
B*
1.1335e-4
RAAN
286.0742°
Arg perigee
85.9528°
Mean anomaly
274.1822°
Rev number
18,936

§ Raw data

ONEWEB-05071 54125U 22138N   26263.04298736  .00000058  00000+0  11335-3 0  99992 54125  87.9102 286.0742 0001900  85.9528 274.1822 13.19726287189361

JSON: /api/v1/satellites/54125 · /tle

For live sub-satellite position, see the globe view (requires WebGL).

§ Visibility from observer

Set your observer location to see the next 7 days of passes ≥ 10°. The values pass through the URL so the page stays shareable.

No JS? Fill the form by hand. The geolocation button needs JavaScript.